Weather History for Kahului, HI

Change the Weather History Date:

Tuesday, November 20, 2012

  Actual Average Record
Temperature  
Mean Temperature 74 °F 76 °F  
Max Temperature 82 °F 84 °F 90 °F (1957)
Min Temperature 66 °F 68 °F 57 °F (1949)
Degree Days  
Heating Degree Days 0 0  
Month to date heating degree days 0 0  
Since 1 July heating degree days 0 0  
Cooling Degree Days 9 11  
Month to date cooling degree days 218 230  
Year to date cooling degree days 3560 3606  
Growing Degree Days 24 (Base 50)    
Moisture  
Dew Point 64 °F    
Average Humidity 71    
Maximum Humidity 87    
Minimum Humidity 54    
Precipitation  
Precipitation 0.00 in 0.07 in 1.51 in (1970)
Month to date precipitation 0.18 1.30  
Year to date precipitation 4.89 13.58  
Snow  
Snow 0.00 in - - ()
Month to date snowfall 0.0  
Since 1 July snowfall 0.0  
Since 1 September snowfall 0.0  
Snow Depth 0.00 in    
Sea Level Pressure  
Sea Level Pressure 30.04 in    
Wind  
Wind Speed 9 mph (ENE)    
Max Wind Speed 24 mph    
Max Gust Speed 36 mph    
Visibility 10 miles    
Events      
T = Trace of Precipitation, MM = Missing Value Source: NWS Daily Summary

Daily Weather History Graph

Daily Weather History Graph

Search for Another Location

Airport:

Trip Planner

Search our weather history database for the weather conditions in past years. The results will help you decide how hot, cold, wet, or windy it might be!

Date:

Astronomy

Nov. 20, 2012 Rise Set
Actual Time 6:39 AM HST 5:43 PM HST
Civil Twilight 6:15 AM HST 6:07 PM HST
Nautical Twilight 5:48 AM HST 6:34 PM HST
Astronomical Twilight 5:22 AM HST 7:00 PM HST
Moon 12:46 PM HST (11/20) 12:00 AM HST (11/20)
Length of Visible Light 11h 51m
Length of Day
11h 04m
First Quarter, 53% of the Moon is Illuminated
Nov 20
First Quarter
Nov 28
Full
Dec 6
Last Quarter
Dec 12
New
Dec 19
First Quarter

Hourly Weather History & Observations

Time (HST) Temp. Heat Index Dew Point Humidity Pressure Visibility Wind Dir Wind Speed Gust Speed Precip Events Conditions
12:54 AM 72.0 °F - 66.0 °F 81% 30.07 in 10.0 mi ENE 9.2 mph - N/A   Clear
1:54 AM 72.0 °F - 64.9 °F 78% 30.05 in 10.0 mi East 9.2 mph 18.4 mph N/A   Clear
2:54 AM 66.0 °F - 62.1 °F 87% 30.05 in 10.0 mi Calm Calm - N/A   Clear
3:54 AM 69.1 °F - 62.1 °F 78% 30.05 in 10.0 mi Calm Calm - N/A   Mostly Cloudy
4:54 AM 69.1 °F - 63.0 °F 81% 30.05 in 10.0 mi NE 3.5 mph - N/A   Mostly Cloudy
5:54 AM 70.0 °F - 63.0 °F 78% 30.05 in 10.0 mi Calm Calm - N/A   Mostly Cloudy
6:54 AM 73.0 °F - 66.9 °F 81% 30.06 in 10.0 mi NE 16.1 mph - N/A   Scattered Clouds
7:54 AM 75.0 °F - 66.9 °F 76% 30.07 in 10.0 mi NE 20.7 mph 24.2 mph N/A   Scattered Clouds
8:54 AM 75.9 °F - 66.9 °F 74% 30.09 in 10.0 mi ENE 18.4 mph 21.9 mph N/A   Scattered Clouds
9:54 AM 75.9 °F - 66.0 °F 71% 30.09 in 10.0 mi ENE 13.8 mph 29.9 mph N/A   Scattered Clouds
9:55 AM 75.9 °F - 66.0 °F 71% 30.09 in 10.0 mi ENE 13.8 mph 29.9 mph N/A   Scattered Clouds
10:54 AM 80.1 °F 81.9 °F 64.9 °F 60% 30.08 in 10.0 mi East 20.7 mph 29.9 mph N/A   Scattered Clouds
11:54 AM 81.0 °F 82.5 °F 64.0 °F 56% 30.04 in 10.0 mi East 16.1 mph 27.6 mph N/A   Scattered Clouds
12:54 PM 79.0 °F - 63.0 °F 58% 30.01 in 10.0 mi ENE 16.1 mph 26.5 mph N/A   Partly Cloudy
1:54 PM 80.1 °F 81.5 °F 63.0 °F 56% 29.99 in 10.0 mi ENE 12.7 mph 17.3 mph N/A   Scattered Clouds
2:54 PM 81.0 °F 82.5 °F 64.0 °F 56% 29.98 in 10.0 mi ENE 13.8 mph 19.6 mph N/A   Partly Cloudy
3:54 PM 78.1 °F - 64.0 °F 62% 29.97 in 10.0 mi NNE 8.1 mph - N/A   Scattered Clouds
4:54 PM 77.0 °F - 63.0 °F 62% 29.98 in 10.0 mi NE 6.9 mph - N/A   Mostly Cloudy
5:54 PM 75.0 °F - 64.0 °F 69% 29.99 in 10.0 mi ENE 3.5 mph - N/A   Partly Cloudy
6:54 PM 73.0 °F - 63.0 °F 71% 30.01 in 10.0 mi ENE 6.9 mph - N/A   Clear
7:54 PM 73.0 °F - 62.1 °F 68% 30.02 in 10.0 mi ENE 8.1 mph - N/A   Clear
8:54 PM 72.0 °F - 63.0 °F 73% 30.03 in 10.0 mi ESE 4.6 mph - N/A   Clear
9:54 PM 69.1 °F - 63.0 °F 81% 30.03 in 10.0 mi Calm Calm - N/A   Clear
10:54 PM 68.0 °F - 63.0 °F 84% 30.03 in 10.0 mi SSE 3.5 mph - N/A   Clear
11:54 PM 69.1 °F - 63.0 °F 81% 30.02 in 10.0 mi SE 5.8 mph - N/A   Clear